Find Starlink 30208

NORAD ID: 57415 Int'l Des: 2023-102 Owner: SPXS Country: US Constellation: starlink operational
LEOCIRCULAR

实时位置

正在加载3D地球...

关于 Starlink 30208

正在加载描述...

即将过境

Passes for default location (London). Set your location on the main map for personalized predictions.

高度历史

Loading altitude history...

两行轨道根数

1 57415U 23102M 26127.81829369 -.00001554 00000-0 -48249-4 0 9992
2 57415 43.0027 274.5848 0001345 263.4943 96.5755 15.26755630155235
Epoch: May 7, 2026 • Age: 6 hours

当前状态

高度 492.1 km
速度 7.62 km/s
星下点 -28.11°S, 117.76°W
发射日期 Jul 19, 2023
运行时间 2.8 years
类型 internet

技术详情

分类 Payload
质量 730.00 kg
干质量 700.00 kg
总质量 730.00 kg
长度 0.30 m
直径 4.10 m
跨度 29.00 m
形状 Box + pan
制造商 SPXS
平台类型 Starlink V2M
阶段状态 In Orbit
所有者/国家 SPXS/US

Most Searched